Flag for U.S.A. Weather past 2 weeks in Augusta, Georgia, U.S.A.

Now
52 °F

Clear.


Feels Like: 49 °F
Forecast: 51 / 77 °F
Wind: 9 mph from North

Location: Daniel Field


UV Index: 7 (High)

Visibility: 10 mi


Pressure: 30.12 "Hg

Humidity: 72%

Dew point: 43 °F

Location of AugustaLocation

Historic Weather in Augusta

°F

Augusta temperature yesterday

Maximum temperature yesterday: 73 °F (at 3:53 PM)
Minimum temperature yesterday: 50 °F (at 2:53 AM)
Average temperature yesterday: 61 °F

Past Weeks' High & Low Weather Summary

 TemperatureHumidityPressure
High83 °F (Apr 12, 4:53 PM)100% (Apr 7, 7:53 AM)30.47 "Hg (Apr 7, 7:53 AM)
Low38 °F (Apr 16, 5:53 AM)20% (Apr 10, 3:53 PM)29.65 "Hg (Apr 8, 4:53 PM)
Average62 °F62%30.07 "Hg
* Reported Apr 6 3:53 AM — Apr 21 3:53 AM, Augusta, Weather by CustomWeather, © 2014

Note: Actual official high and low records may vary slightly from our data, if they occured in-between our weather recording intervals... More about our weather records

Advertising

Historic Weather Conditions — Data for Previous 24 hours

 ConditionsComfort  
Time TempWeatherWind HumidityBarometerVisibility
3:53 AM
Apr 21
54 °FClear.9 mph67%30.12 "Hg10 mi
2:53 AM55 °FClear.8 mph64%30.14 "Hg10 mi
1:53 AM58 °FClear.8 mph58%30.13 "Hg10 mi
12:53 AM59 °FClear.7 mph56%30.14 "Hg10 mi
11:53 PM
Apr 20
61 °FClear.6 mph50%30.14 "Hg10 mi
10:53 PM64 °FClear.6 mph45%30.15 "Hg10 mi
9:53 PM66 °FOvercast.6 mph42%30.16 "Hg10 mi
8:53 PM67 °FOvercast.9 mph41%30.16 "Hg10 mi
7:53 PM69 °FOvercast.7 mph36%30.14 "Hg10 mi
6:53 PM70 °FOvercast.8 mph35%30.14 "Hg10 mi
5:53 PM73 °FPartly sunny.14 mph34%30.13 "Hg10 mi
4:53 PM73 °FPartly sunny.14 mph33%30.13 "Hg10 mi
3:53 PM73 °FSunny.12 mph33%30.13 "Hg10 mi
2:53 PM72 °FSunny.15 mph34%30.14 "Hg10 mi
1:53 PM71 °FPassing clouds.10 mph34%30.17 "Hg10 mi
12:53 PM67 °FMore clouds than sun.17 mph37%30.19 "Hg10 mi
11:53 AM64 °FMostly cloudy.16 mph40%30.21 "Hg10 mi
10:53 AM60 °FOvercast.8 mph52%30.22 "Hg10 mi
9:53 AM56 °FMostly cloudy.10 mph70%30.20 "Hg10 mi
8:53 AM53 °FOvercast.10 mph83%30.18 "Hg10 mi
7:53 AM52 °FOvercast.9 mph86%30.18 "Hg10 mi
6:53 AM51 °FLight rain. Overcast.9 mph89%30.16 "Hg7 mi
5:53 AM51 °FOvercast.10 mph89%30.15 "Hg8 mi
Weather by CustomWeather, © 2014

See weather overview